Gustavus, AK

5:33 PM AKST on February 24, 2017 (GMT -0900)
Gustavus

Weather History for PAGS - September, 2013

Change the Weather History Date:

Wednesday, September 25, 2013

  Actual Average Record
Temperature  
Mean Temperature 42 °F -  
Max Temperature 53 °F 55 °F 64 °F (1977)
Min Temperature 30 °F 37 °F 23 °F (1978)
Degree Days  
Heating Degree Days 24    
Moisture  
Dew Point 40 °F    
Average Humidity 86    
Maximum Humidity 100    
Minimum Humidity 67    
Precipitation  
Precipitation 0.00 in - - ()
Sea Level Pressure  
Sea Level Pressure 30.09 in    
Wind  
Wind Speed 2 mph (ESE)    
Max Wind Speed 14 mph    
Max Gust Speed 17 mph    
Visibility 9 miles    
Events      
Averages and records for this station are not official NWS values.
T = Trace of Precipitation, MM = Missing Value Source: NWS Daily Summary

Daily Weather History Graph

Daily Weather History Graph

Search for Another Location

Airport or City:

Trip Planner

Search our weather history database for the weather conditions in past years. The results will help you decide how hot, cold, wet, or windy it might be!

Date:

Astronomy

Sep. 25, 2013 Rise Set
Actual Time 6:55 AM AKDT 6:52 PM AKDT
Civil Twilight 6:15 AM AKDT 7:31 PM AKDT
Nautical Twilight 5:28 AM AKDT 8:18 PM AKDT
Astronomical Twilight 4:38 AM AKDT 9:08 PM AKDT
Moon 9:53 PM AKDT 2:19 PM AKDT
Length of Visible Light 13h 16m
Length of Day
11h 57m
Waning Gibbous, 62% of the Moon is Illuminated
Sep 25
Waning Gibbous
Sep 26
Last Quarter
Oct 4
New
Oct 11
First Quarter
Oct 18
Full

Hourly Weather History & Observations

Time (AKDT) Temp. Windchill Dew Point Humidity Pressure Visibility Wind Dir Wind Speed Gust Speed Precip Events Conditions
12:16 AM 35.6 °F - 33.8 °F 93% 30.12 in 10.0 mi Calm Calm - N/A   Clear
12:36 AM 35.6 °F 31.7 °F 33.8 °F 93% 30.13 in 10.0 mi North 4.6 mph - N/A   Clear
12:56 AM 35.6 °F 32.8 °F 32.0 °F 87% 30.14 in 10.0 mi North 3.5 mph - N/A   Clear
1:16 AM 35.6 °F 32.8 °F 33.8 °F 93% 30.14 in 10.0 mi North 3.5 mph - N/A   Clear
1:36 AM 35.6 °F - 33.8 °F 93% 30.14 in 10.0 mi Calm Calm - N/A   Clear
1:56 AM 35.6 °F - 32.0 °F 87% 30.14 in 10.0 mi Calm Calm - N/A   Clear
2:16 AM 33.8 °F - 32.0 °F 93% 30.14 in 10.0 mi Calm Calm - N/A   Clear
2:36 AM 33.8 °F - 32.0 °F 93% 30.14 in 10.0 mi Calm Calm - N/A   Clear
2:56 AM 33.8 °F - 30.2 °F 87% 30.14 in 10.0 mi Calm Calm - N/A   Clear
3:16 AM 33.8 °F - 32.0 °F 93% 30.14 in 10.0 mi Calm Calm - N/A   Clear
3:36 AM 33.8 °F - 30.2 °F 87% 30.14 in 10.0 mi Calm Calm - N/A   Clear
3:56 AM 32.0 °F 26.4 °F 30.2 °F 93% 30.15 in 10.0 mi NNW 5.8 mph - N/A   Clear
4:16 AM 32.0 °F - 28.4 °F 87% 30.15 in 10.0 mi Calm Calm - N/A   Clear
4:36 AM 33.8 °F - 30.2 °F 87% 30.15 in 10.0 mi Calm Calm - N/A   Partly Cloudy
4:56 AM 33.8 °F - 30.2 °F 87% 30.15 in 10.0 mi Calm Calm - N/A   Mostly Cloudy
5:16 AM 32.0 °F - 30.2 °F 93% 30.16 in 10.0 mi Calm Calm - N/A   Partly Cloudy
5:36 AM 32.0 °F - 30.2 °F 93% 30.16 in 10.0 mi Calm Calm - N/A   Clear
5:56 AM 32.0 °F 28.7 °F 30.2 °F 93% 30.16 in 10.0 mi North 3.5 mph - N/A   Clear
6:16 AM 32.0 °F - 30.2 °F 93% 30.16 in 10.0 mi Calm Calm - N/A   Clear
6:36 AM 32.0 °F 28.7 °F 28.4 °F 87% 30.16 in 10.0 mi North 3.5 mph - N/A   Clear
6:56 AM 32.0 °F - 30.2 °F 93% 30.16 in 0.8 mi Calm Calm - N/A   Mostly Cloudy
7:16 AM 30.2 °F - 30.2 °F 100% 30.16 in 3.0 mi Calm Calm - N/A   Mostly Cloudy
7:36 AM 32.0 °F - 30.2 °F 93% 30.16 in 1.8 mi Calm Calm - N/A   Overcast
7:56 AM 32.0 °F - 30.2 °F 93% 30.15 in 0.5 mi Calm Calm - N/A   Overcast
8:16 AM 33.8 °F - 32.0 °F 93% 30.15 in 5.0 mi Calm Calm - N/A   Overcast
8:36 AM 33.8 °F - 33.8 °F 100% 30.16 in 1.2 mi Calm Calm - N/A   Overcast
8:56 AM 37.4 °F 34.9 °F 37.4 °F 100% 30.16 in 0.8 mi North 3.5 mph - N/A   Overcast
9:16 AM 39.2 °F 37.0 °F 37.4 °F 93% 30.16 in 3.0 mi North 3.5 mph - N/A   Overcast
9:36 AM 41.0 °F - 39.2 °F 93% 30.15 in 10.0 mi Calm Calm - N/A   Overcast
9:56 AM 42.8 °F - 42.8 °F 100% 30.15 in 10.0 mi Calm Calm - N/A   Overcast
10:16 AM 44.6 °F 40.7 °F 44.6 °F 100% 30.14 in 10.0 mi ESE 6.9 mph - N/A   Overcast
10:36 AM 46.4 °F 42.4 °F 44.6 °F 93% 30.15 in 10.0 mi SE 8.1 mph - N/A   Overcast
10:56 AM 46.4 °F - 44.6 °F 93% 30.15 in 10.0 mi Calm Calm - N/A   Overcast
11:16 AM 46.4 °F 44.3 °F 44.6 °F 93% 30.15 in 10.0 mi ESE 4.6 mph - N/A   Overcast
11:36 AM 48.2 °F - 44.6 °F 87% 30.14 in 10.0 mi ESE 5.8 mph - N/A   Overcast
11:56 AM 48.2 °F - 44.6 °F 87% 30.14 in 10.0 mi ESE 6.9 mph - N/A   Mostly Cloudy
12:16 PM 48.2 °F - 44.6 °F 87% 30.13 in 10.0 mi East 6.9 mph - N/A   Partly Cloudy
12:36 PM 48.2 °F - 44.6 °F 87% 30.14 in 10.0 mi Calm Calm - N/A   Clear
12:56 PM 48.2 °F - 44.6 °F 87% 30.13 in 10.0 mi ESE 3.5 mph - N/A   Clear
1:16 PM 48.2 °F - 44.6 °F 87% 30.13 in 10.0 mi Calm Calm - N/A   Clear
1:36 PM 50.0 °F - 44.6 °F 82% 30.12 in 10.0 mi ESE 4.6 mph - N/A   Partly Cloudy
1:56 PM 50.0 °F - 44.6 °F 82% 30.11 in 10.0 mi ESE 3.5 mph - N/A   Partly Cloudy
2:16 PM 51.8 °F - 44.6 °F 76% 30.11 in 10.0 mi ESE 3.5 mph - N/A   Clear
2:36 PM 51.8 °F - 44.6 °F 76% 30.10 in 10.0 mi Calm Calm - N/A   Clear
2:56 PM 51.8 °F - 44.6 °F 76% 30.09 in 10.0 mi Calm Calm - N/A   Clear
3:16 PM 51.8 °F - 44.6 °F 76% 30.08 in 10.0 mi Calm Calm - N/A   Clear
3:36 PM 53.6 °F - 44.6 °F 72% 30.08 in 10.0 mi SE 4.6 mph - N/A   Clear
3:56 PM 51.8 °F - 46.4 °F 82% 30.08 in 10.0 mi Calm Calm - N/A   Mostly Cloudy
4:16 PM 51.8 °F - 44.6 °F 76% 30.08 in 10.0 mi Calm Calm - N/A   Overcast
4:36 PM 51.8 °F - 44.6 °F 76% 30.07 in 10.0 mi East 3.5 mph - N/A   Overcast
4:56 PM 53.6 °F - 46.4 °F 77% 30.06 in 10.0 mi East 5.8 mph - N/A   Overcast
5:16 PM 53.6 °F - 44.6 °F 72% 30.06 in 10.0 mi Calm Calm - N/A   Overcast
5:36 PM 53.6 °F - 44.6 °F 72% 30.05 in 10.0 mi Calm Calm - N/A   Overcast
5:56 PM 51.8 °F - 44.6 °F 76% 30.04 in 10.0 mi East 4.6 mph - N/A   Overcast
6:16 PM 51.8 °F - 44.6 °F 76% 30.03 in 10.0 mi East 3.5 mph - N/A   Overcast
6:36 PM 51.8 °F - 44.6 °F 76% 30.02 in 10.0 mi ESE 6.9 mph - N/A   Overcast
6:56 PM 53.6 °F - 44.6 °F 72% 30.02 in 10.0 mi ESE 6.9 mph - N/A   Overcast
7:16 PM 53.6 °F - 42.8 °F 67% 30.01 in 10.0 mi ESE 8.1 mph - N/A   Overcast
7:36 PM 53.6 °F - 42.8 °F 67% 30.00 in 10.0 mi ESE 6.9 mph - N/A   Overcast
7:56 PM 51.8 °F - 44.6 °F 76% 30.00 in 10.0 mi ESE 3.5 mph - N/A   Overcast
8:16 PM 51.8 °F - 44.6 °F 76% 30.00 in 10.0 mi Calm Calm - N/A   Overcast
8:36 PM 51.8 °F - 44.6 °F 76% 29.99 in 10.0 mi SSE 6.9 mph - N/A   Overcast
8:56 PM 51.8 °F - 44.6 °F 76% 29.98 in 10.0 mi SSE 9.2 mph - N/A   Overcast
9:16 PM 51.8 °F - 44.6 °F 76% 29.98 in 9.0 mi SSE 6.9 mph - N/A   Overcast
9:36 PM 51.8 °F - 46.4 °F 82% 29.99 in 7.0 mi SSE 5.8 mph - N/A   Overcast
9:56 PM 50.0 °F - 46.4 °F 87% 29.97 in 10.0 mi ESE 4.6 mph - N/A   Overcast
10:16 PM 50.0 °F - 46.4 °F 87% 29.97 in 10.0 mi SE 3.5 mph - N/A   Overcast
10:36 PM 50.0 °F - 46.4 °F 87% 29.96 in 10.0 mi SE 6.9 mph - N/A   Overcast
10:56 PM 51.8 °F - 46.4 °F 82% 29.95 in 7.0 mi ESE 10.4 mph - N/A   Overcast
11:16 PM 51.8 °F - 46.4 °F 82% 29.95 in 10.0 mi SE 6.9 mph - N/A   Overcast
11:36 PM 51.8 °F - 46.4 °F 82% 29.95 in 10.0 mi SE 13.8 mph 17.3 mph N/A   Overcast
11:56 PM 50.0 °F - 46.4 °F 87% 29.94 in 10.0 mi SE 10.4 mph - N/A   Overcast